Location: Olmeneta
(45.2333°N, 10.0167°E)
Time: 20:54:28
(UTC+00:00)

ATLAS 5 CENTAUR R/B - Pass Details

Date: 03 March 2021
Orbit: 254 x 14192 km, 60.8° (Epoch: 12 April)

Event Time Altitude Azimuth Distance (km) Brightness Sun altitude
Rises 17:06:42 0° 229° (SW) 11,331 9.6 -0.3°
Reaches altitude 10° 17:18:05 10° 233° (SW) 7,818 8.8 -2.2°
Maximum altitude 17:35:37 58° 312° (NW) 1,481 4.3 -5.3°
Drops below altitude 10° 17:40:06 10° 33° (NNE) 2,148 4.5 -6.1°
Sets 17:41:29 0° 39° (NE) 2,720 5.0 -6.3°
